SCP
0 0 0 0 0 0 0 0 0 0 0 0 0 0 0 0 0 0 0 0 0 0 0 0 0 0 0 0 0 0 0 0 0 0 0 0 0 0 0 0 0 0 0
0 0 0 0 0 0 0 0 0 0 0 0 0 0 0 0 0 0 0 0 0 0 0 0 0 0 0 0 0 0 0 0 0 0 0 0 0 0 0 0 0 0 0
0 0 0 0 0 0 0 0 0 0 0 0 0 0 0 0 0 0 0 0 0 0 0 0 0 0 0 0 0 0 0 0 0 0 0 0 0 0 0 0 0 0 0
0 0 0 0 0 0 0 0 0 0 0 0 0 0 0 0 0 0 0 0 0 0 0 0 0 0 0 0 0 0 0 0 0 0 0 0 0 0 0 0 0 0 0
0 0 0 0 0 0 0 0 0 0 0 0 0 0 0 0 0 0 0 0 0 0 0 0 0 0 0 0 0 0 0 0 0 0 0 0 0 0 0 0 0 0 0
0 0 0 0 0 0 0 0 0 0 0 0 0 0 0 0 0 0 0 0 0 0 0 0 0 0 0 0 0 0 0 0 0 0 0 0 0 0 0 0 0 0 0
0 0 0 0 0 0 0 0 0 0 0 0 0 0 0 0 0 0 0 0 0 0 0 0 0 0 0 0 0 0 0 0 0 0 0 0 0 0 0 0 0 0 0
0 0 0 0 0 0 0 0 0 0 0 0 0 0 0 0 0 0 0 0 0 0 0 0 0 0 0 0 0 0 0 0 0 0 0 0 0 0 0 0 0 0 0
0 0 0 0 0 0 0 0 0 0 0 0 0 0 0 0 0 0 0 0 0 0 0 0 0 0 0 0 0 0 0 0 0 0 0 0 0 0 0 0 0 0 0
0 0 0 0 0 0 0 0 0 0 0 0 0 0 0 0 0 0 0 0 0 0 0 0 0 0 0 0 0 0 0 0 0 0 0 0 0 0 0 0 0 0 0
0 0 0 0 0 0 0 0 0 0 0 0 0 0 0 0 0 0 0 0 0 0 0 0 0 0 0 0 0 0 0 0 0 0 0 0 0 0 0 0 0 0 0
0 0 0 0 0 0 0 0 0 0 0 0 0 0 0 0 0 0 0 0 0 0 0 0 0 0 0 0 0 0 0 0 0 0 0 0 0 0 0 0 0 0 0
0 0 0 0 0 0 0 0 0 0 0 0 0 0 0 0 0 0 0 0 0 0 0 0 0 0 0 0 0 0 0 0 0 0 0 0 0 0 0 0 0 0 0
0 0 0 0 0 0 0 0 0 0 0 0 0 0 0 0 0 0 0 0 0 0 0 0 0 0 0 0 0 0 0 0 0 0 0 0 0 0 0 0 0 0 0
0 0 0 0 0 0 0 0 0 0 0 0 0 0 0 0 0 0 0 0 0 0 0 0 0 0 0 0 0 0 0 0 0 0 0 0 0 0 0 0 0 0 0
0 0 0 0 0 0 0 0 0 0 0 0 0 0 0 0 0 0 0 0 0 0 0 0 0 0 0 0 0 0 0 0 0 0 0 0 0 0 0 0 0 0 0
0 0 0 0 0 0 0 0 0 0 0 0 0 0 0 0 0 0 0 0 0 0 0 0 0 0 0 0 0 0 0 0 0 0 0 0 0 0 0 0 0 0 0
0 0 0 0 0 0 0 0 0 0 0 0 0 0 0 0 0 0 0 0 0 0 0 0 0 0 0 0 0 0 0 0 0 0 0 0 0 0 0 0 0 0 0
0 0 0 0 0 0 0 0 0 0 0 0 0 0 0 0 0 0 0 0 0 0 0 0 0 0 0 0 0 0 0 0 0 0 0 0 0 0 0 0 0 0 0
0 0 0 0 0 0 0 0 0 0 0 0 0 0 0 0 0 0 0 0 0 0 0 0 0 0 0 0 0 0 0 0 0 0 0 0 0 0 0 0 0 0 0
0 0 0 0 0 0 0 0 0 0 0 0 0 0 0 0 0 0 0 0 0 0 0 0 0 0 0 0 0 0 0 0 0 0 0 0 0 0 0 0 0 0 0
0 0 0 0 0 0 0 0 0 0 0 0 0 0 0 0 0 0 0 0 0 0 0 0 0 0 0 0 0 0 0 0 0 0 0 0 0 0 0 0 0 0 0
0 0 0 0 0 0 0 0 0 0 0 0 0 0 0 0 0 0 0 0 0 0 0 0 0 0 0 0 0 0 0 0 0 0 0 0 0 0 0 0 0 0 0
0 0 0 0 0 0 0 0 0 0 0 0 0 0 0 0 0 0 0 0 0 0 0 0 0 0 0 0 0 0 0 0 0 0 0 0 0 0 0 0 0 0 0
0 0 0 0 0 0 0 0 0 0 0 0 0 0 0 0 0 0 0 0 0 0 0 0 0 0 0 0 0 0 0 0 0 0 0 0 0 0 0 0 0 0 0
0 0 0 0 0 0 0 0 0 0 0 0 0 0 0 0 0 0 0 0 0 0 0 0 0 0 0 0 0 0 0 0 0 0 0 0 0 0 0 0 0 0 0
Wind_Speed_500mb
11 14 15 15 14 17 22 28 34 41 47 54 60 64 66 68 66 65 64 64 65 66 63 65 65 63 64 61 58 57 57 52 64 93 83 82 80 73 68 62 59 55 49
14 15 14 16 20 25 32 40 47 54 59 64 64 64 63 64 66 67 68 67 67 69 69 70 72 72 73 71 69 67 61 55 59 81 86 83 79 73 71 68 59 57 55
12 12 15 20 27 36 44 50 55 55 53 53 55 56 56 55 55 54 56 58 58 59 60 63 65 67 69 70 70 70 67 63 60 69 87 83 80 72 70 68 62 59 56
11 16 22 30 38 46 50 50 50 51 51 49 49 49 50 51 54 56 57 59 60 60 60 61 62 63 66 67 67 66 64 65 64 66 75 79 77 70 67 67 64 57 54
17 24 31 38 43 44 46 47 47 47 48 50 50 47 49 51 54 58 61 64 66 67 66 65 65 65 65 65 66 69 67 66 64 64 70 75 76 69 64 60 59 59 55
28 34 38 40 41 42 43 44 44 43 43 45 46 48 49 51 55 58 64 69 70 71 73 70 68 68 67 65 62 61 57 56 60 63 69 70 70 64 60 59 57 56 61
34 35 36 37 40 42 42 42 43 44 46 47 49 50 51 55 59 62 66 68 69 71 73 76 77 75 72 69 67 66 66 59 47 56 68 72 70 63 60 59 57 58 60
34 35 36 38 37 37 39 41 44 46 48 49 51 54 55 57 63 68 72 73 73 71 70 70 72 73 71 70 74 76 72 67 67 51 55 61 60 61 58 56 56 58 64
30 33 34 34 35 38 40 43 45 46 48 50 54 57 61 63 65 67 70 71 73 73 72 71 72 72 70 64 67 75 77 80 77 66 55 59 56 55 55 51 52 51 63
31 32 34 35 36 38 42 44 48 50 51 53 55 58 60 61 62 64 66 68 73 75 75 79 76 67 69 68 68 72 81 89 81 75 57 58 60 58 53 48 47 47 55
31 33 34 36 38 40 44 48 50 52 54 56 55 53 54 56 57 60 64 65 66 73 79 85 84 74 73 77 71 74 80 78 81 76 73 64 60 57 54 49 44 44 47
34 35 39 41 44 45 47 48 50 51 52 53 54 53 51 51 55 59 61 59 57 67 79 84 84 81 82 80 73 67 71 74 75 72 68 56 61 58 48 45 42 42 44
37 41 44 45 46 46 45 45 47 50 52 53 53 52 51 50 52 55 61 61 60 64 76 73 81 86 87 87 81 71 69 67 65 58 57 57 58 53 41 37 37 38 39
41 44 45 47 46 46 45 45 45 47 48 49 49 51 54 55 57 61 64 66 70 76 83 86 83 83 82 78 77 71 64 54 47 47 48 47 45 42 34 32 34 35 36
43 46 48 48 45 43 42 42 43 45 46 46 46 50 55 59 57 55 57 61 64 70 79 88 91 88 86 82 72 60 53 42 45 45 45 43 40 35 30 30 34 34 33
44 47 46 44 42 41 40 38 41 41 40 42 45 50 54 57 63 68 65 57 63 72 82 83 83 78 76 75 70 65 51 44 43 43 40 34 30 30 30 33 34 31 29
45 45 44 43 41 41 42 43 41 37 40 40 45 50 56 64 69 72 60 69 78 78 76 75 72 70 69 68 63 58 53 46 41 37 34 30 29 31 33 34 31 27 25
44 43 42 40 39 39 41 43 43 45 45 43 44 53 60 66 71 70 70 78 81 79 74 72 70 66 64 62 60 55 50 43 38 35 33 33 33 34 34 32 28 25 23
41 40 39 37 36 38 39 38 40 43 46 50 54 56 62 67 69 68 66 65 70 72 70 69 65 62 60 58 56 52 46 41 37 34 32 32 33 33 31 27 24 21 19
37 36 36 33 34 35 36 38 40 43 46 52 58 65 71 75 75 73 70 67 65 66 65 65 64 60 57 55 53 49 44 40 37 34 32 32 31 29 27 24 22 20 19
35 34 32 32 32 33 36 38 40 44 51 56 59 62 64 63 68 69 69 66 63 63 62 62 61 58 55 54 51 47 44 41 38 37 35 32 28 26 22 20 18 17 17
33 31 30 29 31 32 34 35 39 46 51 59 63 62 61 61 63 64 62 60 58 57 56 58 58 56 54 52 50 48 45 43 40 39 36 30 25 21 18 16 13 13 15
29 28 28 29 30 30 31 35 41 47 53 58 61 62 60 61 62 61 59 58 57 56 54 54 54 54 50 48 45 45 44 41 39 36 32 26 20 16 13 12 10 11 14
26 26 27 27 27 29 33 37 42 48 54 56 57 57 59 59 59 58 57 56 56 54 52 52 51 50 50 47 44 41 39 37 32 29 25 21 17 13 10 9 9 11 13
25 26 24 23 26 30 34 40 45 50 53 57 58 58 57 57 57 57 57 56 55 54 52 51 50 50 48 45 43 40 37 34 31 26 22 18 14 11 9 9 10 11 13
24 22 21 23 27 33 38 44 47 50 54 56 58 58 57 56 57 58 58 57 57 55 53 49 47 47 45 43 41 38 34 31 29 23 20 16 14 11 11 10 11 12 13
Wind_Direction_500mb
311 321 330 336 336 333 331 332 330 328 325 323 321 319 318 316 315 313 311 310 308 307 307 305 304 302 299 297 294 290 286 280 275 288 288 292 295 299 300 299 299 293 280
318 323 328 328 327 328 326 324 323 320 317 316 315 315 314 312 310 309 309 309 308 307 306 305 304 302 300 300 298 295 290 284 279 282 287 289 291 294 296 297 295 293 289
307 309 316 316 317 318 318 316 315 315 316 315 314 313 314 315 314 314 314 313 312 310 309 308 307 305 302 300 298 295 294 290 283 279 285 287 288 289 290 289 292 291 292
296 309 312 313 314 315 317 318 318 319 320 321 324 325 324 323 322 321 318 317 316 314 312 309 308 307 305 304 302 299 296 292 286 279 279 283 286 290 290 293 294 293 292
306 308 310 313 317 319 319 321 324 327 330 331 332 331 328 326 324 323 321 321 320 319 316 313 311 309 306 305 305 303 301 296 291 288 286 289 290 293 294 293 288 289 285
309 312 315 318 319 323 326 329 332 334 334 332 329 330 331 330 330 328 326 325 324 322 320 319 316 312 309 307 306 302 300 301 296 292 289 288 289 293 295 294 293 290 291
310 314 319 326 331 331 331 331 331 332 333 334 334 334 335 334 333 330 327 327 326 325 324 324 322 319 318 318 314 308 305 300 292 289 282 285 291 292 290 287 286 286 287
316 322 327 327 326 325 327 330 333 335 335 337 337 337 337 335 333 331 329 328 327 326 327 326 323 324 325 322 319 314 312 310 307 296 288 284 283 285 286 288 287 281 279
318 318 318 320 325 329 331 332 333 335 335 337 336 336 336 335 332 328 327 327 326 328 327 327 328 324 325 324 316 315 318 315 314 309 296 295 289 291 290 291 287 285 279
312 316 321 322 322 325 327 331 333 332 333 334 334 332 330 330 332 332 332 331 332 333 330 328 328 324 323 322 316 315 309 311 316 313 304 289 287 288 288 286 289 278 271
309 309 309 314 318 324 327 328 326 328 329 326 326 327 328 331 334 336 336 336 336 329 330 330 329 325 322 316 311 303 298 307 304 298 300 293 275 283 283 284 287 283 272
304 307 313 315 319 322 320 319 321 322 322 323 324 327 332 337 338 338 337 338 336 332 330 329 329 326 324 320 313 303 299 298 300 296 295 296 276 273 278 282 285 288 279
305 306 309 313 312 311 312 314 316 318 321 324 326 330 335 339 340 338 338 340 334 329 327 325 327 328 327 323 321 312 305 301 298 294 294 295 285 270 277 282 288 292 285
302 304 305 304 304 308 311 312 315 318 320 323 327 331 334 337 337 338 338 338 332 328 323 326 328 327 326 324 320 316 315 306 302 303 304 302 286 268 276 282 293 293 287
299 300 300 300 302 303 305 309 316 319 322 327 329 329 330 332 335 332 332 332 325 322 322 325 327 328 330 332 330 325 321 325 322 318 313 304 291 279 281 290 296 292 283
295 296 297 298 298 299 303 310 315 317 320 323 326 327 327 327 327 328 330 325 324 326 325 326 327 329 331 333 336 335 332 335 331 327 324 315 297 286 290 297 297 291 281
291 293 294 295 297 301 307 311 313 313 319 323 325 326 325 325 327 327 329 323 325 324 325 327 329 331 330 331 333 335 334 334 334 332 324 313 301 296 298 300 297 287 277
288 289 291 292 296 302 307 311 314 318 321 324 325 324 324 324 325 328 324 323 322 324 326 327 328 329 330 330 329 330 330 332 333 331 324 315 307 303 301 300 293 282 271
286 287 288 291 296 302 306 310 315 319 323 325 326 325 326 326 327 328 328 327 325 324 325 325 326 327 328 328 329 326 325 327 330 329 325 317 310 305 301 297 286 273 260
283 285 287 292 296 299 305 314 319 320 323 326 330 330 330 329 333 332 331 331 328 326 326 325 325 326 326 326 325 327 324 324 326 325 323 318 312 306 300 293 281 269 255
282 281 283 289 295 304 312 316 318 322 326 327 330 331 331 330 329 329 329 329 328 327 327 325 325 325 325 323 321 321 322 322 323 322 320 318 314 307 298 288 276 262 245
274 276 285 292 301 308 310 315 320 323 325 327 328 331 330 328 326 326 327 327 328 327 326 325 324 324 324 322 321 318 315 316 317 317 318 317 314 307 297 285 269 246 227
271 280 288 297 303 305 312 318 320 322 325 326 328 329 328 327 326 326 327 329 330 329 328 326 324 323 324 320 316 315 315 315 313 313 313 313 311 306 294 279 259 233 214
271 281 291 295 300 307 313 318 320 323 325 327 328 327 326 325 324 326 329 329 329 330 331 328 325 324 323 321 318 313 309 310 312 311 311 310 307 300 285 264 239 217 205
276 286 289 292 300 308 314 317 321 323 327 328 326 323 322 322 325 328 329 330 330 330 332 331 329 325 323 322 320 316 311 306 304 305 304 301 296 287 268 243 227 216 206
280 279 283 295 306 311 314 317 321 324 326 324 319 317 319 324 327 327 328 329 330 331 332 330 328 324 323 321 320 318 313 308 301 299 294 290 283 271 257 241 227 216 207
Wind_Speed_850mb
11 14 15 15 14 17 22 28 34 41 47 54 60 64 66 68 66 65 64 64 65 66 63 65 65 63 64 61 58 57 57 52 64 93 83 82 80 73 68 62 59 55 49
14 15 14 16 20 25 32 40 47 54 59 64 64 64 63 64 66 67 68 67 67 69 69 70 72 72 73 71 69 67 61 55 59 81 86 83 79 73 71 68 59 57 55
12 12 15 20 27 36 44 50 55 55 53 53 55 56 56 55 55 54 56 58 58 59 60 63 65 67 69 70 70 70 67 63 60 69 87 83 80 72 70 68 62 59 56
11 16 22 30 38 46 50 50 50 51 51 49 49 49 50 51 54 56 57 59 60 60 60 61 62 63 66 67 67 66 64 65 64 66 75 79 77 70 67 67 64 57 54
17 24 31 38 43 44 46 47 47 47 48 50 50 47 49 51 54 58 61 64 66 67 66 65 65 65 65 65 66 69 67 66 64 64 70 75 76 69 64 60 59 59 55
28 34 38 40 41 42 43 44 44 43 43 45 46 48 49 51 55 58 64 69 70 71 73 70 68 68 67 65 62 61 57 56 60 63 69 70 70 64 60 59 57 56 61
34 35 36 37 40 42 42 42 43 44 46 47 49 50 51 55 59 62 66 68 69 71 73 76 77 75 72 69 67 66 66 59 47 56 68 72 70 63 60 59 57 58 60
34 35 36 38 37 37 39 41 44 46 48 49 51 54 55 57 63 68 72 73 73 71 70 70 72 73 71 70 74 76 72 67 67 51 55 61 60 61 58 56 56 58 64
30 33 34 34 35 38 40 43 45 46 48 50 54 57 61 63 65 67 70 71 73 73 72 71 72 72 70 64 67 75 77 80 77 66 55 59 56 55 55 51 52 51 63
31 32 34 35 36 38 42 44 48 50 51 53 55 58 60 61 62 64 66 68 73 75 75 79 76 67 69 68 68 72 81 89 81 75 57 58 60 58 53 48 47 47 55
31 33 34 36 38 40 44 48 50 52 54 56 55 53 54 56 57 60 64 65 66 73 79 85 84 74 73 77 71 74 80 78 81 76 73 64 60 57 54 49 44 44 47
34 35 39 41 44 45 47 48 50 51 52 53 54 53 51 51 55 59 61 59 57 67 79 84 84 81 82 80 73 67 71 74 75 72 68 56 61 58 48 45 42 42 44
37 41 44 45 46 46 45 45 47 50 52 53 53 52 51 50 52 55 61 61 60 64 76 73 81 86 87 87 81 71 69 67 65 58 57 57 58 53 41 37 37 38 39
41 44 45 47 46 46 45 45 45 47 48 49 49 51 54 55 57 61 64 66 70 76 83 86 83 83 82 78 77 71 64 54 47 47 48 47 45 42 34 32 34 35 36
43 46 48 48 45 43 42 42 43 45 46 46 46 50 55 59 57 55 57 61 64 70 79 88 91 88 86 82 72 60 53 42 45 45 45 43 40 35 30 30 34 34 33
44 47 46 44 42 41 40 38 41 41 40 42 45 50 54 57 63 68 65 57 63 72 82 83 83 78 76 75 70 65 51 44 43 43 40 34 30 30 30 33 34 31 29
45 45 44 43 41 41 42 43 41 37 40 40 45 50 56 64 69 72 60 69 78 78 76 75 72 70 69 68 63 58 53 46 41 37 34 30 29 31 33 34 31 27 25
44 43 42 40 39 39 41 43 43 45 45 43 44 53 60 66 71 70 70 78 81 79 74 72 70 66 64 62 60 55 50 43 38 35 33 33 33 34 34 32 28 25 23
41 40 39 37 36 38 39 38 40 43 46 50 54 56 62 67 69 68 66 65 70 72 70 69 65 62 60 58 56 52 46 41 37 34 32 32 33 33 31 27 24 21 19
37 36 36 33 34 35 36 38 40 43 46 52 58 65 71 75 75 73 70 67 65 66 65 65 64 60 57 55 53 49 44 40 37 34 32 32 31 29 27 24 22 20 19
35 34 32 32 32 33 36 38 40 44 51 56 59 62 64 63 68 69 69 66 63 63 62 62 61 58 55 54 51 47 44 41 38 37 35 32 28 26 22 20 18 17 17
33 31 30 29 31 32 34 35 39 46 51 59 63 62 61 61 63 64 62 60 58 57 56 58 58 56 54 52 50 48 45 43 40 39 36 30 25 21 18 16 13 13 15
29 28 28 29 30 30 31 35 41 47 53 58 61 62 60 61 62 61 59 58 57 56 54 54 54 54 50 48 45 45 44 41 39 36 32 26 20 16 13 12 10 11 14
26 26 27 27 27 29 33 37 42 48 54 56 57 57 59 59 59 58 57 56 56 54 52 52 51 50 50 47 44 41 39 37 32 29 25 21 17 13 10 9 9 11 13
25 26 24 23 26 30 34 40 45 50 53 57 58 58 57 57 57 57 57 56 55 54 52 51 50 50 48 45 43 40 37 34 31 26 22 18 14 11 9 9 10 11 13
24 22 21 23 27 33 38 44 47 50 54 56 58 58 57 56 57 58 58 57 57 55 53 49 47 47 45 43 41 38 34 31 29 23 20 16 14 11 11 10 11 12 13
Wind_Direction_850mb
311 321 330 336 336 333 331 332 330 328 325 323 321 319 318 316 315 313 311 310 308 307 307 305 304 302 299 297 294 290 286 280 275 288 288 292 295 299 300 299 299 293 280
318 323 328 328 327 328 326 324 323 320 317 316 315 315 314 312 310 309 309 309 308 307 306 305 304 302 300 300 298 295 290 284 279 282 287 289 291 294 296 297 295 293 289
307 309 316 316 317 318 318 316 315 315 316 315 314 313 314 315 314 314 314 313 312 310 309 308 307 305 302 300 298 295 294 290 283 279 285 287 288 289 290 289 292 291 292
296 309 312 313 314 315 317 318 318 319 320 321 324 325 324 323 322 321 318 317 316 314 312 309 308 307 305 304 302 299 296 292 286 279 279 283 286 290 290 293 294 293 292
306 308 310 313 317 319 319 321 324 327 330 331 332 331 328 326 324 323 321 321 320 319 316 313 311 309 306 305 305 303 301 296 291 288 286 289 290 293 294 293 288 289 285
309 312 315 318 319 323 326 329 332 334 334 332 329 330 331 330 330 328 326 325 324 322 320 319 316 312 309 307 306 302 300 301 296 292 289 288 289 293 295 294 293 290 291
310 314 319 326 331 331 331 331 331 332 333 334 334 334 335 334 333 330 327 327 326 325 324 324 322 319 318 318 314 308 305 300 292 289 282 285 291 292 290 287 286 286 287
316 322 327 327 326 325 327 330 333 335 335 337 337 337 337 335 333 331 329 328 327 326 327 326 323 324 325 322 319 314 312 310 307 296 288 284 283 285 286 288 287 281 279
318 318 318 320 325 329 331 332 333 335 335 337 336 336 336 335 332 328 327 327 326 328 327 327 328 324 325 324 316 315 318 315 314 309 296 295 289 291 290 291 287 285 279
312 316 321 322 322 325 327 331 333 332 333 334 334 332 330 330 332 332 332 331 332 333 330 328 328 324 323 322 316 315 309 311 316 313 304 289 287 288 288 286 289 278 271
309 309 309 314 318 324 327 328 326 328 329 326 326 327 328 331 334 336 336 336 336 329 330 330 329 325 322 316 311 303 298 307 304 298 300 293 275 283 283 284 287 283 272
304 307 313 315 319 322 320 319 321 322 322 323 324 327 332 337 338 338 337 338 336 332 330 329 329 326 324 320 313 303 299 298 300 296 295 296 276 273 278 282 285 288 279
305 306 309 313 312 311 312 314 316 318 321 324 326 330 335 339 340 338 338 340 334 329 327 325 327 328 327 323 321 312 305 301 298 294 294 295 285 270 277 282 288 292 285
302 304 305 304 304 308 311 312 315 318 320 323 327 331 334 337 337 338 338 338 332 328 323 326 328 327 326 324 320 316 315 306 302 303 304 302 286 268 276 282 293 293 287
299 300 300 300 302 303 305 309 316 319 322 327 329 329 330 332 335 332 332 332 325 322 322 325 327 328 330 332 330 325 321 325 322 318 313 304 291 279 281 290 296 292 283
295 296 297 298 298 299 303 310 315 317 320 323 326 327 327 327 327 328 330 325 324 326 325 326 327 329 331 333 336 335 332 335 331 327 324 315 297 286 290 297 297 291 281
291 293 294 295 297 301 307 311 313 313 319 323 325 326 325 325 327 327 329 323 325 324 325 327 329 331 330 331 333 335 334 334 334 332 324 313 301 296 298 300 297 287 277
288 289 291 292 296 302 307 311 314 318 321 324 325 324 324 324 325 328 324 323 322 324 326 327 328 329 330 330 329 330 330 332 333 331 324 315 307 303 301 300 293 282 271
286 287 288 291 296 302 306 310 315 319 323 325 326 325 326 326 327 328 328 327 325 324 325 325 326 327 328 328 329 326 325 327 330 329 325 317 310 305 301 297 286 273 260
283 285 287 292 296 299 305 314 319 320 323 326 330 330 330 329 333 332 331 331 328 326 326 325 325 326 326 326 325 327 324 324 326 325 323 318 312 306 300 293 281 269 255
282 281 283 289 295 304 312 316 318 322 326 327 330 331 331 330 329 329 329 329 328 327 327 325 325 325 325 323 321 321 322 322 323 322 320 318 314 307 298 288 276 262 245
274 276 285 292 301 308 310 315 320 323 325 327 328 331 330 328 326 326 327 327 328 327 326 325 324 324 324 322 321 318 315 316 317 317 318 317 314 307 297 285 269 246 227
271 280 288 297 303 305 312 318 320 322 325 326 328 329 328 327 326 326 327 329 330 329 328 326 324 323 324 320 316 315 315 315 313 313 313 313 311 306 294 279 259 233 214
271 281 291 295 300 307 313 318 320 323 325 327 328 327 326 325 324 326 329 329 329 330 331 328 325 324 323 321 318 313 309 310 312 311 311 310 307 300 285 264 239 217 205
276 286 289 292 300 308 314 317 321 323 327 328 326 323 322 322 325 328 329 330 330 330 332 331 329 325 323 322 320 316 311 306 304 305 304 301 296 287 268 243 227 216 206
280 279 283 295 306 311 314 317 321 324 326 324 319 317 319 324 327 327 328 329 330 331 332 330 328 324 323 321 320 318 313 308 301 299 294 290 283 271 257 241 227 216 207